Lexington, NE

2:49 AM CST on December 04, 2016 (GMT -0600)
Kelly

Weather History for KLXN - April, 2014

Change the Weather History Date:

Wednesday, April 30, 2014

  Actual Average Record
Temperature  
Mean Temperature 42 °F -  
Max Temperature 49 °F 63 °F 80 °F (2007)
Min Temperature 36 °F 39 °F 28 °F (1998)
Degree Days  
Heating Degree Days 22    
Moisture  
Dew Point 31 °F    
Average Humidity 67    
Maximum Humidity 84    
Minimum Humidity 47    
Precipitation  
Precipitation 0.00 in - - ()
Sea Level Pressure  
Sea Level Pressure 30.08 in    
Wind  
Wind Speed 21 mph (NW)    
Max Wind Speed 33 mph    
Max Gust Speed 43 mph    
Visibility 10 miles    
Events      
Averages and records for this station are not official NWS values.
T = Trace of Precipitation, MM = Missing Value Source: NWS Daily Summary

Daily Weather History Graph

Daily Weather History Graph

Search for Another Location

Airport or City:

Trip Planner

Search our weather history database for the weather conditions in past years. The results will help you decide how hot, cold, wet, or windy it might be!

Date:

Astronomy

Apr. 30, 2014 Rise Set
Actual Time 6:38 AM CDT 8:34 PM CDT
Civil Twilight 6:09 AM CDT 9:04 PM CDT
Nautical Twilight 5:33 AM CDT 9:40 PM CDT
Astronomical Twilight 4:54 AM CDT 10:19 PM CDT
Moon 7:41 AM CDT (4/30) 10:15 PM CDT (4/30)
Length of Visible Light 14h 55m
Length of Day
13h 55m
New Moon, 2% of the Moon is Illuminated
Apr 30
New Moon
May 6
First Quarter
May 14
Full
May 21
Last Quarter
May 28
New

Hourly Weather History & Observations

Time (CDT) Temp. Windchill Dew Point Humidity Pressure Visibility Wind Dir Wind Speed Gust Speed Precip Events Conditions
12:15 AM 37.4 °F 27.2 °F 33.1 °F 84% 30.06 in 10.0 mi NW 19.6 mph 25.3 mph N/A   Clear
12:35 AM 37.6 °F 27.1 °F 33.3 °F 84% 30.06 in 10.0 mi NW 20.7 mph - N/A   Clear
12:55 AM 38.3 °F 27.6 °F 33.3 °F 82% 30.07 in 10.0 mi NW 23.0 mph 27.6 mph N/A   Clear
1:15 AM 37.8 °F 28.0 °F 33.1 °F 83% 30.08 in 10.0 mi NW 18.4 mph 25.3 mph N/A   Clear
1:35 AM 37.4 °F 27.5 °F 32.9 °F 84% 30.08 in 10.0 mi NW 18.4 mph - N/A   Clear
1:55 AM 37.2 °F 27.3 °F 32.9 °F 84% 30.07 in 10.0 mi NW 18.4 mph - N/A   Clear
2:15 AM 38.3 °F 28.1 °F 33.4 °F 83% 30.08 in 10.0 mi NW 20.7 mph 24.2 mph N/A   Scattered Clouds
2:35 AM 38.8 °F 29.4 °F 33.4 °F 81% 30.08 in 10.0 mi NW 18.4 mph 25.3 mph N/A   Scattered Clouds
2:55 AM 37.9 °F 27.9 °F 32.9 °F 82% 30.08 in 10.0 mi NW 19.6 mph 24.2 mph N/A   Scattered Clouds
3:15 AM 37.4 °F 27.5 °F 32.7 °F 83% 30.08 in 10.0 mi NW 18.4 mph 23.0 mph N/A   Clear
3:35 AM 37.2 °F 28.3 °F 32.4 °F 83% 30.08 in 10.0 mi NW 15.0 mph 23.0 mph N/A   Clear
3:55 AM 37.8 °F 28.3 °F 32.9 °F 83% 30.08 in 10.0 mi NW 17.3 mph - N/A   Scattered Clouds
4:15 AM 37.9 °F 27.9 °F 32.2 °F 80% 30.08 in 10.0 mi NW 19.6 mph 26.5 mph N/A   Scattered Clouds
4:35 AM 37.4 °F 27.8 °F 32.0 °F 81% 30.08 in 10.0 mi NW 17.3 mph 21.9 mph N/A   Scattered Clouds
4:55 AM 37.4 °F 27.5 °F 32.0 °F 81% 30.08 in 10.0 mi NW 18.4 mph 23.0 mph N/A   Scattered Clouds
5:15 AM 37.4 °F 27.5 °F 32.0 °F 81% 30.08 in 10.0 mi NW 18.4 mph 26.5 mph N/A   Scattered Clouds
5:35 AM 36.9 °F 27.5 °F 32.0 °F 83% 30.09 in 10.0 mi NW 16.1 mph 23.0 mph N/A   Clear
5:55 AM 36.5 °F 27.8 °F 32.0 °F 84% 30.09 in 10.0 mi NW 13.8 mph - N/A   Scattered Clouds
6:15 AM 37.2 °F 28.7 °F 32.2 °F 82% 30.09 in 10.0 mi NW 13.8 mph - N/A   Scattered Clouds
6:35 AM 37.8 °F 29.0 °F 32.9 °F 83% 30.09 in 10.0 mi NW 15.0 mph - N/A   Scattered Clouds
6:55 AM 38.3 °F 29.0 °F 32.5 °F 80% 30.10 in 10.0 mi NNW 17.3 mph 21.9 mph N/A   Scattered Clouds
7:15 AM 39.2 °F 29.6 °F 32.0 °F 75% 30.10 in 10.0 mi NW 19.6 mph - N/A   Scattered Clouds
7:35 AM 39.2 °F 29.8 °F 32.2 °F 76% 30.10 in 10.0 mi NW 18.4 mph 26.5 mph N/A   Scattered Clouds
7:55 AM 39.7 °F 30.3 °F 32.7 °F 76% 30.10 in 10.0 mi NW 19.6 mph 25.3 mph N/A   Clear
8:15 AM 40.5 °F 30.2 °F 32.7 °F 74% 30.10 in 10.0 mi NW 24.2 mph 28.8 mph N/A   Clear
8:35 AM 41.4 °F 31.4 °F 32.5 °F 71% 30.10 in 10.0 mi NW 24.2 mph 34.5 mph N/A   Clear
8:55 AM 41.2 °F 30.9 °F 32.0 °F 70% 30.11 in 10.0 mi NNW 25.3 mph 33.4 mph N/A   Clear
9:15 AM 42.6 °F 32.6 °F 32.2 °F 67% 30.11 in 10.0 mi NNW 26.5 mph 32.2 mph N/A   Clear
9:35 AM 41.7 °F 31.4 °F 32.5 °F 70% 30.11 in 10.0 mi NNW 26.5 mph 32.2 mph N/A   Scattered Clouds
9:55 AM 42.4 °F 32.6 °F 33.1 °F 69% 30.11 in 10.0 mi NNW 25.3 mph 33.4 mph N/A   Clear
10:15 AM 44.4 °F 35.5 °F 32.5 °F 63% 30.11 in 10.0 mi NNW 24.2 mph 34.5 mph N/A   Clear
10:35 AM 44.6 °F 34.7 °F 32.5 °F 63% 30.11 in 10.0 mi NW 29.9 mph 38.0 mph N/A   Scattered Clouds
10:55 AM 44.8 °F 35.9 °F 31.6 °F 60% 30.11 in 10.0 mi NW 24.2 mph 38.0 mph N/A   Clear
11:15 AM 45.5 °F 35.6 °F 31.3 °F 58% 30.11 in 10.0 mi NNW 32.2 mph 40.3 mph N/A   Clear
11:35 AM 44.6 °F 35.1 °F 32.0 °F 61% 30.11 in 10.0 mi NNW 27.6 mph 33.4 mph N/A   Clear
11:55 AM 45.5 °F 36.1 °F 32.2 °F 60% 30.11 in 10.0 mi North 28.8 mph 36.8 mph N/A   Clear
12:15 PM 48.2 °F - 32.2 °F 54% 30.10 in 10.0 mi North 33.4 mph 42.6 mph N/A   Clear
12:35 PM 45.7 °F 36.9 °F 31.1 °F 57% 30.11 in 10.0 mi NNW 25.3 mph 32.2 mph N/A   Clear
12:55 PM 46.8 °F - 30.2 °F 53% 30.10 in 10.0 mi NNW 21.9 mph 34.5 mph N/A   Clear
1:15 PM 46.6 °F - 32.4 °F 58% 30.09 in 10.0 mi North 28.8 mph 33.4 mph N/A   Scattered Clouds
1:35 PM 47.5 °F - 32.7 °F 57% 30.09 in 10.0 mi NNW 29.9 mph 33.4 mph N/A   Light Drizzle
1:55 PM 47.5 °F - 31.3 °F 53% 30.09 in 10.0 mi NNW 29.9 mph 40.3 mph N/A   Clear
2:15 PM 45.9 °F 36.8 °F 30.2 °F 54% 30.09 in 10.0 mi NW 27.6 mph 34.5 mph N/A   Clear
2:35 PM 46.4 °F 38.1 °F 28.8 °F 50% 30.08 in 10.0 mi NNW 24.2 mph 33.4 mph N/A   Clear
2:55 PM 47.3 °F - 30.4 °F 52% 30.08 in 10.0 mi NNW 27.6 mph 34.5 mph N/A   Clear
3:15 PM 47.3 °F - 29.8 °F 51% 30.08 in 10.0 mi NNW 24.2 mph 28.8 mph N/A   Clear
3:35 PM 47.5 °F - 29.5 °F 50% 30.08 in 10.0 mi NNW 27.6 mph 34.5 mph N/A   Clear
3:55 PM 48.2 °F - 29.1 °F 48% 30.07 in 10.0 mi North 26.5 mph 32.2 mph N/A   Clear
4:15 PM 48.6 °F - 29.8 °F 48% 30.07 in 10.0 mi NNW 23.0 mph 34.5 mph N/A   Clear
4:55 PM 48.2 °F - 28.9 °F 47% 30.06 in 10.0 mi NNW 25.3 mph 34.5 mph N/A   Clear
5:15 PM 49.1 °F - 29.8 °F 47% 30.06 in 10.0 mi North 25.3 mph 29.9 mph N/A   Clear
5:35 PM 47.8 °F - 28.6 °F 47% 30.06 in 10.0 mi NNW 28.8 mph 34.5 mph N/A   Scattered Clouds
5:55 PM 48.2 °F - 28.6 °F 47% 30.07 in 10.0 mi North 21.9 mph 35.7 mph N/A   Scattered Clouds
6:15 PM 48.2 °F - 29.5 °F 48% 30.07 in 10.0 mi NNW 24.2 mph 31.1 mph N/A   Clear
6:35 PM 47.5 °F - 28.6 °F 48% 30.07 in 10.0 mi NNW 26.5 mph 33.4 mph N/A   Clear
6:55 PM 48.2 °F - 29.3 °F 48% 30.07 in 10.0 mi NNW 23.0 mph 31.1 mph N/A   Clear
7:15 PM 48.6 °F - 30.9 °F 51% 30.07 in 10.0 mi NNW 27.6 mph 36.8 mph N/A   Scattered Clouds
7:35 PM 47.3 °F - 29.7 °F 50% 30.07 in 10.0 mi NNW 26.5 mph 32.2 mph N/A   Clear
8:15 PM 45.7 °F 38.0 °F 30.2 °F 55% 30.07 in 10.0 mi NNW 19.6 mph 24.2 mph N/A   Clear
8:35 PM 44.4 °F 38.6 °F 30.6 °F 58% 30.07 in 10.0 mi NW 11.5 mph - N/A   Clear
8:55 PM 42.6 °F 37.2 °F 30.7 °F 63% 30.07 in 10.0 mi NW 9.2 mph - N/A   Clear
9:15 PM 41.9 °F 35.4 °F 30.7 °F 65% 30.07 in 10.0 mi NW 11.5 mph - N/A   Clear
9:35 PM 42.8 °F 35.8 °F 30.0 °F 61% 30.07 in 10.0 mi NW 13.8 mph - N/A   Clear
9:55 PM 41.4 °F 35.7 °F 30.2 °F 65% 30.08 in 10.0 mi WNW 9.2 mph - N/A   Clear
10:15 PM 39.2 °F 32.5 °F 31.1 °F 73% 30.08 in 10.0 mi WNW 10.4 mph - N/A   Clear
10:35 PM 39.9 °F 32.9 °F 31.8 °F 73% 30.08 in 10.0 mi WNW 11.5 mph - N/A   Clear
11:15 PM 39.0 °F 32.3 °F 31.8 °F 75% 30.08 in 10.0 mi WNW 10.4 mph - N/A   Clear
11:35 PM 38.7 °F 31.4 °F 31.8 °F 76% 30.08 in 10.0 mi WNW 11.5 mph - N/A   Clear
11:55 PM 38.3 °F 31.4 °F 31.8 °F 77% 30.08 in 10.0 mi WNW 10.4 mph - N/A   Clear